Weather History for McComb, MS

Change the Weather History Date:

Monday, July 8, 2013

  Actual Average Record
Temperature  
Mean Temperature 80 °F -  
Max Temperature 91 °F 91 °F 98 °F (1990)
Min Temperature 71 °F 69 °F 50 °F (1997)
Cooling Degree Days 16    
Growing Degree Days 30 (Base 50)    
Moisture  
Dew Point 72 °F    
Average Humidity 89    
Maximum Humidity 100    
Minimum Humidity 52    
Precipitation  
Precipitation 0.37 in - - ()
Sea Level Pressure  
Sea Level Pressure 30.12 in    
Wind  
Wind Speed 2 mph (South)    
Max Wind Speed 15 mph    
Max Gust Speed 17 mph    
Visibility 6 miles    
Events Fog , Rain , Thunderstorm    
Averages and records for this station are not official NWS values.
T = Trace of Precipitation, MM = Missing Value Source: NWS Daily Summary

Daily Weather History Graph

Daily Weather History Graph

Search for Another Location

Airport:

Trip Planner

Search our weather history database for the weather conditions in past years. The results will help you decide how hot, cold, wet, or windy it might be!

Date:

Astronomy

Jul. 08, 2013 Rise Set
Actual Time 6:04 AM CDT 8:09 PM CDT
Civil Twilight 5:37 AM CDT 8:36 PM CDT
Nautical Twilight 5:03 AM CDT 9:10 PM CDT
Astronomical Twilight 4:27 AM CDT 9:46 PM CDT
Moon 6:28 AM CDT (7/8) 8:18 PM CDT (7/8)
Length of Visible Light 14h 59m
Length of Day
14h 04m
New Moon, 0% of the Moon is Illuminated
Jul 8
New Moon
Jul 15
First Quarter
Jul 22
Full
Jul 29
Last Quarter
Aug 6
New

Hourly Weather History & Observations

Time (CDT) Temp. Heat Index Dew Point Humidity Pressure Visibility Wind Dir Wind Speed Gust Speed Precip Events Conditions
12:53 AM 73.9 °F - 72.0 °F 93% 30.09 in 9.0 mi Calm Calm - N/A   Clear
1:39 AM 73.4 °F - 71.6 °F 94% 30.09 in 6.0 mi Calm Calm - N/A   Partly Cloudy
1:53 AM 73.0 °F - 72.0 °F 96% 30.07 in 6.0 mi Calm Calm - N/A   Mostly Cloudy
2:11 AM 73.4 °F - 71.6 °F 94% 30.08 in 1.8 mi Calm Calm - 0.01 in   Overcast
2:26 AM 73.4 °F - 71.6 °F 94% 30.08 in 0.8 mi Calm Calm - 0.01 in   Mist
2:53 AM 73.0 °F - 72.0 °F 96% 30.06 in 0.8 mi Calm Calm - 0.01 in   Mist
3:44 AM 71.6 °F - 71.6 °F 100% 30.09 in 1.2 mi Calm Calm - N/A   Overcast
3:53 AM 72.0 °F - 71.1 °F 97% 30.08 in 1.5 mi Calm Calm - N/A   Overcast
4:01 AM 71.6 °F - 71.6 °F 100% 30.10 in 3.0 mi Calm Calm - N/A   Overcast
4:24 AM 71.6 °F - 71.6 °F 100% 30.11 in 4.0 mi SSE 3.5 mph - N/A   Mostly Cloudy
4:53 AM 72.0 °F - 71.1 °F 97% 30.11 in 10.0 mi Calm Calm - N/A   Partly Cloudy
5:05 AM 71.6 °F - 71.6 °F 100% 30.12 in 10.0 mi Calm Calm - N/A   Partly Cloudy
5:28 AM 71.6 °F - 71.6 °F 100% 30.13 in 10.0 mi Calm Calm - N/A   Mostly Cloudy
5:53 AM 72.0 °F - 71.1 °F 97% 30.13 in 3.0 mi Calm Calm - N/A   Overcast
6:06 AM 71.6 °F - 71.6 °F 100% 30.14 in 1.8 mi Calm Calm - N/A   Overcast
6:22 AM 71.6 °F - 71.6 °F 100% 30.15 in 0.5 mi Calm Calm - N/A Fog Fog
6:36 AM 71.6 °F - 71.6 °F 100% 30.15 in 2.0 mi Calm Calm - N/A   Overcast
6:53 AM 72.0 °F - 71.1 °F 97% 30.14 in 6.0 mi Calm Calm - N/A   Overcast
7:20 AM 73.4 °F - 71.6 °F 94% 30.16 in 10.0 mi Calm Calm - N/A   Overcast
7:53 AM 73.9 °F - 72.0 °F 93% 30.15 in 9.0 mi Calm Calm - N/A   Overcast
8:53 AM 75.9 °F - 73.0 °F 91% 30.17 in 10.0 mi Calm Calm - N/A   Overcast
9:53 AM 78.1 °F - 73.9 °F 87% 30.17 in 10.0 mi Variable 3.5 mph - N/A   Overcast
10:53 AM 82.9 °F 88.0 °F 72.0 °F 69% 30.16 in 10.0 mi SSW 4.6 mph - N/A   Mostly Cloudy
11:53 AM 84.0 °F 90.2 °F 73.0 °F 69% 30.16 in 10.0 mi Calm Calm - N/A   Mostly Cloudy
12:53 PM 87.1 °F 93.6 °F 72.0 °F 61% 30.14 in 10.0 mi Variable 3.5 mph - N/A   Mostly Cloudy
1:53 PM 86.0 °F 90.1 °F 69.1 °F 57% 30.14 in 10.0 mi SW 4.6 mph - N/A   Overcast
2:53 PM 88.0 °F 92.9 °F 70.0 °F 55% 30.11 in 10.0 mi Calm Calm - N/A   Partly Cloudy
3:53 PM 90.0 °F 95.4 °F 70.0 °F 52% 30.10 in 10.0 mi WNW 4.6 mph - N/A   Partly Cloudy
4:53 PM 88.0 °F 96.5 °F 73.9 °F 63% 30.09 in 10.0 mi NNE 4.6 mph - N/A   Partly Cloudy
5:39 PM 82.4 °F 88.2 °F 73.4 °F 74% 30.11 in 10.0 mi Calm Calm - N/A Thunderstorm Thunderstorm
5:53 PM 82.0 °F 86.7 °F 72.0 °F 71% 30.09 in 10.0 mi West 9.2 mph 17.3 mph N/A Thunderstorm Thunderstorm
6:53 PM 75.9 °F - 73.9 °F 94% 30.13 in 2.0 mi South 15.0 mph - 0.10 in Rain , Thunderstorm Heavy Rain
7:01 PM 75.2 °F - 73.4 °F 94% 30.14 in 1.8 mi South 13.8 mph - 0.05 in Rain , Thunderstorm Heavy Rain
7:08 PM 75.2 °F - 73.4 °F 94% 30.14 in 2.5 mi South 15.0 mph - 0.07 in Rain Rain
7:15 PM 75.2 °F - 73.4 °F 94% 30.14 in 4.0 mi South 15.0 mph - 0.08 in Rain , Thunderstorm Light Rain
7:24 PM 73.4 °F - 71.6 °F 94% 30.14 in 2.5 mi South 11.5 mph - 0.11 in Rain Rain
7:53 PM 73.9 °F - 71.1 °F 91% 30.12 in 3.0 mi SSW 6.9 mph - 0.25 in Rain Light Rain
8:53 PM 73.0 °F - 72.0 °F 96% 30.13 in 10.0 mi ESE 3.5 mph - 0.00 in   Clear
9:00 PM 73.4 °F - 71.6 °F 94% 30.14 in 10.0 mi SE 3.5 mph - N/A   Scattered Clouds
9:08 PM 73.4 °F - 71.6 °F 94% 30.15 in 8.0 mi SE 3.5 mph - N/A   Mostly Cloudy
9:53 PM 73.0 °F - 72.0 °F 96% 30.15 in 9.0 mi Calm Calm - N/A   Scattered Clouds
10:53 PM 73.0 °F - 72.0 °F 96% 30.16 in 10.0 mi Calm Calm - 0.01 in   Clear
11:53 PM 73.0 °F - 72.0 °F 96% 30.15 in 10.0 mi Calm Calm - N/A   Clear